| time (UTC) | temp C | wind direction | speed KPH | gust KPH | rain 1hr cm | rain 24hr cm | rain mn cm | humidity % | barometer mb |
| 20260505184320 | 22 | 203 | 6.4 | 11.3 | 0.03 | 0.03 | 0.03 | 47 | 1012.9 |
| 20260505183317 | 23 | 203 | 8.0 | 12.9 | 0.03 | 0.03 | 0.03 | 47 | 1012.9 |
| 20260505182319 | 23 | 203 | 9.7 | 16.1 | 0.03 | 0.03 | 0.03 | 46 | 1013.1 |
| 20260505181318 | 23 | 180 | 14.5 | 19.3 | 0.03 | 0.03 | 0.03 | 47 | 1013.4 |
| 20260505180318 | 23 | 158 | 6.4 | 11.3 | 0.03 | 0.03 | 0.03 | 48 | 1013.5 |
| 20260505175317 | 23 | 203 | 6.4 | 9.7 | 0.00 | 0.00 | 0.00 | 49 | 1013.3 |
| 20260505174318 | 23 | 203 | 9.7 | 16.1 | 0.00 | 0.00 | 0.00 | 49 | 1013.4 |
| 20260505173317 | 23 | 0.0 | 4.8 | 0.00 | 0.00 | 0.00 | 51 | 1013.4 | |
| 20260505172317 | 23 | 225 | 6.4 | 12.9 | 0.00 | 0.00 | 0.00 | 50 | 1013.7 |
| 20260505171317 | 23 | 158 | 9.7 | 17.7 | 0.00 | 0.00 | 0.00 | 48 | 1013.8 |
| 20260505170338 | 22 | 203 | 11.3 | 14.5 | 0.00 | 0.00 | 0.00 | 48 | 1013.9 |
| 20260505165317 | 22 | 203 | 16.1 | 25.7 | 0.00 | 0.00 | 0.00 | 46 | 1014.0 |
| 20260505164317 | 22 | 180 | 9.7 | 17.7 | 0.00 | 0.00 | 0.00 | 50 | 1014.1 |
| 20260505163317 | 22 | 180 | 4.8 | 11.3 | 0.00 | 0.00 | 0.00 | 54 | 1014.2 |
| 20260505162317 | 22 | 180 | 6.4 | 9.7 | 0.00 | 0.00 | 0.00 | 52 | 1014.3 |
| 20260505161317 | 21 | 203 | 11.3 | 14.5 | 0.00 | 0.00 | 0.00 | 52 | 1014.1 |
| 20260505160318 | 21 | 225 | 6.4 | 11.3 | 0.00 | 0.00 | 0.00 | 56 | 1013.8 |
| 20260505153317 | 21 | 270 | 8.0 | 16.1 | 0.00 | 0.00 | 0.00 | 59 | 1014.2 |
| 20260505152317 | 20 | 225 | 4.8 | 12.9 | 0.00 | 0.00 | 0.00 | 63 | 1014.4 |
| 20260505151317 | 20 | 203 | 9.7 | 17.7 | 0.00 | 0.00 | 0.00 | 63 | 1014.4 |
| 20260505150317 | 20 | 225 | 6.4 | 9.7 | 0.00 | 0.00 | 0.00 | 65 | 1014.4 |
| 20260505140317 | 18 | 225 | 3.2 | 4.8 | 0.00 | 0.00 | 0.00 | 69 | 1014.3 |
| 20260505124316 | 16 | 180 | 3.2 | 6.4 | 0.00 | 0.00 | 0.00 | 75 | 1013.9 |
| 20260505123337 | 15 | 180 | 4.8 | 6.4 | 0.00 | 0.00 | 0.00 | 75 | 1013.9 |
| 20260505122316 | 15 | 180 | 3.2 | 6.4 | 0.00 | 0.00 | 0.00 | 78 | 1013.9 |
| 20260505121316 | 14 | 0.0 | 0.0 | 0.00 | 0.00 | 0.00 | 81 | 1013.9 | |
| 20260505120320 | 13 | 0.0 | 1.6 | 0.00 | 0.00 | 0.00 | 80 | 1013.9 | |
| 20260505115316 | 13 | 0.0 | 0.0 | 0.00 | 0.00 | 0.00 | 80 | 1013.5 | |
| 20260505114316 | 13 | 0.0 | 0.0 | 0.00 | 0.00 | 0.00 | 80 | 1013.1 | |
| 20260505113316 | 13 | 0.0 | 0.0 | 0.00 | 0.00 | 0.00 | 81 | 1012.9 | |
| 20260505112316 | 13 | 0.0 | 0.0 | 0.00 | 0.00 | 0.00 | 80 | 1012.9 | |
| 20260505111316 | 13 | 0.0 | 0.0 | 0.00 | 0.00 | 0.00 | 79 | 1012.9 | |
| 20260505110316 | 13 | 0.0 | 0.0 | 0.00 | 0.00 | 0.00 | 78 | 1012.6 | |
| 20260505101318 | 13 | 0.0 | 0.0 | 0.00 | 0.00 | 0.00 | 76 | 1012.0 | |
| 20260505100338 | 13 | 0.0 | 0.0 | 0.00 | 0.00 | 0.00 | 75 | 1012.1 | |
| 20260505095318 | 13 | 0.0 | 0.0 | 0.00 | 0.00 | 0.00 | 74 | 1012.1 | |
| 20260505094318 | 13 | 0.0 | 0.0 | 0.00 | 0.00 | 0.00 | 73 | 1012.1 | |
| 20260505093338 | 14 | 0.0 | 0.0 | 0.00 | 0.00 | 0.00 | 72 | 1012.3 | |
| 20260505092318 | 14 | 0.0 | 0.0 | 0.00 | 0.00 | 0.00 | 71 | 1012.1 | |
| 20260505091337 | 14 | 0.0 | 4.8 | 0.00 | 0.00 | 0.00 | 71 | 1011.9 | |
| 20260505090319 | 15 | 0.0 | 4.8 | 0.00 | 0.00 | 0.00 | 71 | 1011.8 | |
| 20260505085318 | 15 | 0.0 | 1.6 | 0.00 | 0.00 | 0.00 | 70 | 1011.8 | |
| 20260505084317 | 14 | 158 | 1.6 | 3.2 | 0.00 | 0.00 | 0.00 | 71 | 1012.0 |
| 20260505083318 | 14 | 0.0 | 1.6 | 0.00 | 0.00 | 0.00 | 73 | 1012.2 | |
| 20260505082318 | 13 | 0.0 | 0.0 | 0.00 | 0.00 | 0.00 | 75 | 1012.0 | |
| 20260505081317 | 13 | 180 | 1.6 | 6.4 | 0.00 | 0.00 | 0.00 | 78 | 1011.8 |
| 20260505080317 | 12 | 0.0 | 0.0 | 0.00 | 0.00 | 0.00 | 80 | 1012.2 | |
| 20260505075317 | 12 | 0.0 | 0.0 | 0.00 | 0.00 | 0.00 | 80 | 1012.2 | |
| 20260505074318 | 12 | 0.0 | 0.0 | 0.00 | 0.00 | 0.00 | 80 | 1012.3 | |
| 20260505073317 | 12 | 0.0 | 0.0 | 0.00 | 0.00 | 0.00 | 80 | 1012.5 | |
| 20260505072317 | 12 | 0.0 | 0.0 | 0.00 | 0.00 | 0.00 | 80 | 1012.5 | |
| 20260505071337 | 12 | 0.0 | 0.0 | 0.00 | 0.00 | 0.00 | 79 | 1012.5 | |
| 20260505070318 | 12 | 0.0 | 0.0 | 0.00 | 0.00 | 0.00 | 79 | 1012.6 | |
| 20260505065317 | 13 | 0.0 | 0.0 | 0.00 | 0.00 | 0.00 | 77 | 1012.6 | |
| 20260505064317 | 13 | 0.0 | 0.0 | 0.00 | 0.00 | 0.00 | 76 | 1012.8 | |
| 20260505063318 | 14 | 0.0 | 0.0 | 0.00 | 0.00 | 0.00 | 74 | 1012.8 | |
| 20260505062317 | 14 | 0.0 | 0.0 | 0.00 | 0.00 | 0.00 | 72 | 1013.0 | |
| 20260505061317 | 15 | 0.0 | 0.0 | 0.00 | 0.00 | 0.00 | 71 | 1013.1 | |
| 20260505060317 | 15 | 0.0 | 0.0 | 0.00 | 0.00 | 0.00 | 69 | 1013.1 | |
| 20260505055317 | 16 | 0.0 | 0.0 | 0.00 | 0.00 | 0.00 | 68 | 1013.1 | |
| 20260505054317 | 16 | 0.0 | 0.0 | 0.00 | 0.00 | 0.00 | 67 | 1013.1 | |
| 20260505053317 | 16 | 0.0 | 3.2 | 0.00 | 0.00 | 0.00 | 66 | 1013.1 | |
| 20260505052317 | 16 | 0.0 | 0.0 | 0.00 | 0.00 | 0.00 | 66 | 1013.1 | |
| 20260505051317 | 16 | 0.0 | 0.0 | 0.00 | 0.00 | 0.00 | 66 | 1013.2 | |
| 20260505050319 | 16 | 0.0 | 0.0 | 0.00 | 0.00 | 0.00 | 65 | 1013.2 | |
| 20260505041317 | 17 | 180 | 1.6 | 8.0 | 0.00 | 0.00 | 0.00 | 61 | 1013.0 |
| 20260505040338 | 17 | 0.0 | 0.0 | 0.00 | 0.00 | 0.00 | 60 | 1013.1 | |
| 20260505035317 | 17 | 0.0 | 0.0 | 0.00 | 0.00 | 0.00 | 60 | 1013.0 | |
| 20260505034317 | 17 | 0.0 | 0.0 | 0.00 | 0.00 | 0.00 | 60 | 1013.0 | |
| 20260505033337 | 17 | 0.0 | 0.0 | 0.00 | 0.00 | 0.00 | 59 | 1012.9 | |
| 20260505032338 | 17 | 0.0 | 0.0 | 0.00 | 0.00 | 0.00 | 57 | 1012.9 | |
| 20260505031317 | 18 | 0.0 | 0.0 | 0.00 | 0.00 | 0.00 | 58 | 1013.0 | |
| 20260505030317 | 18 | 0.0 | 0.0 | 0.00 | 0.00 | 0.00 | 56 | 1013.0 | |
| 20260505025319 | 18 | 0.0 | 4.8 | 0.00 | 0.00 | 0.00 | 57 | 1013.0 | |
| 20260505024337 | 18 | 0.0 | 0.0 | 0.00 | 0.00 | 0.00 | 57 | 1013.0 | |
| 20260505023337 | 18 | 0.0 | 1.6 | 0.00 | 0.00 | 0.00 | 57 | 1013.1 | |
| 20260505022317 | 18 | 0.0 | 0.0 | 0.00 | 0.00 | 0.00 | 56 | 1012.9 | |
| 20260505021317 | 19 | 0.0 | 0.0 | 0.00 | 0.00 | 0.00 | 56 | 1012.8 | |
| 20260505020317 | 19 | 0.0 | 1.6 | 0.00 | 0.00 | 0.00 | 54 | 1012.8 | |
| 20260505015316 | 19 | 0.0 | 1.6 | 0.00 | 0.00 | 0.00 | 53 | 1012.7 | |
| 20260505014316 | 20 | 0.0 | 1.6 | 0.00 | 0.00 | 0.00 | 54 | 1012.6 | |
| 20260505013317 | 20 | 180 | 1.6 | 4.8 | 0.00 | 0.00 | 0.00 | 54 | 1012.6 |
| 20260505012316 | 20 | 0.0 | 0.0 | 0.00 | 0.00 | 0.00 | 53 | 1012.5 | |
| 20260505011317 | 20 | 0.0 | 0.0 | 0.00 | 0.00 | 0.00 | 52 | 1012.6 | |
| 20260505010337 | 20 | 0.0 | 1.6 | 0.00 | 0.00 | 0.00 | 52 | 1012.5 | |
| 20260505005316 | 21 | 0.0 | 3.2 | 0.00 | 0.00 | 0.00 | 51 | 1012.4 | |
| 20260505004316 | 21 | 0.0 | 0.0 | 0.00 | 0.00 | 0.00 | 50 | 1012.3 | |
| 20260505003317 | 21 | 0.0 | 0.0 | 0.00 | 0.00 | 0.00 | 48 | 1012.2 | |
| 20260505002316 | 22 | 0.0 | 0.0 | 0.00 | 0.00 | 0.00 | 47 | 1012.2 | |
| 20260505001317 | 22 | 180 | 3.2 | 6.4 | 0.00 | 0.00 | 0.00 | 46 | 1012.1 |
| 20260505000317 | 22 | 180 | 6.4 | 9.7 | 0.00 | 0.00 | 0.00 | 44 | 1012.1 |
| 20260504235316 | 23 | 180 | 6.4 | 11.3 | 0.00 | 0.00 | 0.00 | 44 | 1012.1 |
| 20260504234316 | 23 | 203 | 11.3 | 17.7 | 0.00 | 0.00 | 0.00 | 43 | 1012.1 |
| 20260504233316 | 23 | 180 | 3.2 | 6.4 | 0.00 | 0.00 | 0.00 | 43 | 1012.2 |
| 20260504232316 | 23 | 203 | 6.4 | 11.3 | 0.00 | 0.00 | 0.00 | 41 | 1012.1 |
| 20260504231316 | 23 | 180 | 3.2 | 8.0 | 0.00 | 0.00 | 0.00 | 41 | 1012.1 |
| 20260504230336 | 24 | 203 | 6.4 | 14.5 | 0.00 | 0.00 | 0.00 | 41 | 1011.9 |
| 20260504225318 | 24 | 248 | 4.8 | 12.9 | 0.00 | 0.00 | 0.00 | 43 | 1012.0 |
| 20260504224318 | 24 | 203 | 9.7 | 12.9 | 0.00 | 0.00 | 0.00 | 41 | 1012.2 |
| 20260504223318 | 24 | 225 | 8.0 | 14.5 | 0.00 | 0.00 | 0.00 | 39 | 1012.2 |
| 20260504222320 | 24 | 180 | 9.7 | 19.3 | 0.00 | 0.00 | 0.00 | 43 | 1012.2 |
| 20260504221318 | 24 | 203 | 8.0 | 12.9 | 0.00 | 0.00 | 0.00 | 42 | 1012.5 |
| 20260504220319 | 25 | 203 | 8.0 | 17.7 | 0.00 | 0.00 | 0.00 | 42 | 1012.4 |
| 20260504215318 | 25 | 203 | 8.0 | 11.3 | 0.00 | 0.00 | 0.00 | 45 | 1012.4 |
| 20260504214318 | 25 | 180 | 9.7 | 14.5 | 0.00 | 0.00 | 0.00 | 45 | 1012.3 |
| 20260504213319 | 24 | 203 | 6.4 | 12.9 | 0.00 | 0.00 | 0.00 | 45 | 1012.4 |
| 20260504212318 | 25 | 203 | 8.0 | 12.9 | 0.00 | 0.00 | 0.00 | 42 | 1012.5 |
| 20260504211317 | 25 | 203 | 11.3 | 19.3 | 0.00 | 0.00 | 0.00 | 43 | 1012.5 |
| 20260504210338 | 24 | 158 | 3.2 | 4.8 | 0.00 | 0.00 | 0.00 | 49 | 1012.6 |
| 20260504205317 | 24 | 225 | 8.0 | 16.1 | 0.00 | 0.00 | 0.00 | 48 | 1012.8 |
| 20260504204318 | 25 | 180 | 4.8 | 9.7 | 0.00 | 0.00 | 0.00 | 46 | 1012.9 |
| 20260504203317 | 25 | 180 | 6.4 | 12.9 | 0.00 | 0.00 | 0.00 | 46 | 1012.8 |
| 20260504202318 | 25 | 270 | 9.7 | 16.1 | 0.00 | 0.00 | 0.00 | 44 | 1013.0 |
| 20260504201318 | 24 | 203 | 11.3 | 17.7 | 0.00 | 0.00 | 0.00 | 46 | 1013.0 |
| 20260504200318 | 25 | 180 | 9.7 | 22.5 | 0.00 | 0.00 | 0.00 | 45 | 1013.3 |
| 20260504195317 | 25 | 158 | 8.0 | 11.3 | 0.00 | 0.00 | 0.00 | 46 | 1013.3 |
| 20260504194358 | 24 | 225 | 6.4 | 16.1 | 0.00 | 0.00 | 0.00 | 48 | 1013.4 |
| 20260504193318 | 24 | 203 | 8.0 | 17.7 | 0.00 | 0.00 | 0.00 | 49 | 1013.6 |
| 20260504192317 | 24 | 203 | 8.0 | 12.9 | 0.00 | 0.00 | 0.00 | 47 | 1013.7 |
| 20260504191317 | 25 | 180 | 9.7 | 12.9 | 0.00 | 0.00 | 0.00 | 47 | 1014.0 |
| 20260504190318 | 24 | 203 | 4.8 | 9.7 | 0.00 | 0.00 | 0.00 | 48 | 1014.1 |
| 20260504185317 | 24 | 203 | 8.0 | 11.3 | 0.00 | 0.00 | 0.00 | 49 | 1014.3 |